• In Belarus
  • List of Countries
  • For 7 days
  • Water Temperature
  • Satellite Maps
  • Weather Map
  • Weather Widgets
  • user-avatar
    Login

    Hourly Weather Pernik

    Today, 18 July, Wednesday

    Time Temperature Precipitation Wind Pressure Humidity
    00:00 +15°C° 0 mm 1 mps 687 mmHg 91%
    01:00 +14°C° 0 mm 1 mps 687 mmHg 92%
    02:00 +14°C° 0 mm 1 mps 687 mmHg 93%
    03:00 +14°C° 0 mm 1 mps 687 mmHg 93%
    04:00 +13°C° 0 mm 1 mps 687 mmHg 93%
    05:00 +13°C° 0 mm 1 mps 687 mmHg 93%
    06:00 +15°C° 0 mm 2 mps 687 mmHg 85%
    07:00 +17°C° 0 mm 3 mps 688 mmHg 77%
    08:00 +19°C° 0 mm 3 mps 688 mmHg 69%
    09:00 +20°C° 0 mm 4 mps 688 mmHg 63%
    10:00 +21°C° 0 mm 5 mps 688 mmHg 58%
    11:00 +22°C° 0 mm 5 mps 688 mmHg 52%
    12:00 +23°C° 0.1 mm 6 mps 688 mmHg 52%
    13:00 +23°C° 0.1 mm 6 mps 688 mmHg 51%
    14:00 +24°C° 0.1 mm 6 mps 688 mmHg 50%
    15:00 +23°C° 0.1 mm 6 mps 688 mmHg 53%
    16:00 +22°C° 0.1 mm 6 mps 688 mmHg 55%
    17:00 +22°C° 0.1 mm 6 mps 688 mmHg 58%
    18:00 +20°C° 0 mm 5 mps 688 mmHg 63%
    19:00 +19°C° 0 mm 4 mps 688 mmHg 68%
    20:00 +18°C° 0 mm 4 mps 687 mmHg 72%
    21:00 +17°C° 0 mm 3 mps 688 mmHg 76%
    22:00 +16°C° 0 mm 3 mps 688 mmHg 80%
    23:00 +14°C° 0 mm 2 mps 688 mmHg 84%

    Tomorrow, 19 July, Thursday

    Time Temperature Precipitation Wind Pressure Humidity
    00:00 +14°C° 0 mm 2 mps 688 mmHg 84%
    01:00 +14°C° 0 mm 2 mps 687 mmHg 85%
    02:00 +13°C° 0 mm 2 mps 687 mmHg 86%
    03:00 +14°C° 0 mm 2 mps 687 mmHg 85%
    04:00 +14°C° 0 mm 2 mps 687 mmHg 85%
    05:00 +14°C° 0 mm 2 mps 687 mmHg 85%
    06:00 +15°C° 0.1 mm 2 mps 687 mmHg 84%
    07:00 +15°C° 0.1 mm 2 mps 687 mmHg 84%
    08:00 +16°C° 0.1 mm 2 mps 687 mmHg 83%
    09:00 +17°C° 0 mm 3 mps 687 mmHg 78%
    10:00 +18°C° 0 mm 3 mps 688 mmHg 73%
    11:00 +20°C° 0 mm 4 mps 688 mmHg 68%
    12:00 +20°C° 0 mm 4 mps 688 mmHg 67%
    13:00 +20°C° 0 mm 4 mps 688 mmHg 65%
    14:00 +21°C° 0 mm 4 mps 688 mmHg 64%
    15:00 +21°C° 0 mm 4 mps 688 mmHg 62%
    16:00 +21°C° 0 mm 4 mps 688 mmHg 61%
    17:00 +22°C° 0 mm 4 mps 688 mmHg 60%
    18:00 +20°C° 0 mm 3 mps 688 mmHg 68%
    19:00 +19°C° 0 mm 3 mps 688 mmHg 75%
    20:00 +17°C° 0 mm 2 mps 688 mmHg 83%
    21:00 +16°C° 0 mm 2 mps 688 mmHg 86%
    22:00 +16°C° 0 mm 2 mps 689 mmHg 89%
    23:00 +15°C° 0 mm 1 mps 689 mmHg 92%

    Day after tomorrow, 20 July, Friday

    Time Temperature Precipitation Wind Pressure Humidity
    00:00 +15°C° 0 mm 1 mps 689 mmHg 93%
    01:00 +15°C° 0 mm 1 mps 688 mmHg 94%
    02:00 +15°C° 0 mm 1 mps 688 mmHg 94%
    03:00 +15°C° 0 mm 1 mps 688 mmHg 94%
    04:00 +15°C° 0 mm 1 mps 688 mmHg 94%
    05:00 +15°C° 0 mm 1 mps 689 mmHg 94%
    06:00 +16°C° 0 mm 2 mps 689 mmHg 89%
    07:00 +18°C° 0 mm 2 mps 689 mmHg 84%
    08:00 +19°C° 0 mm 2 mps 689 mmHg 79%
    09:00 +20°C° 0 mm 3 mps 690 mmHg 73%
    10:00 +22°C° 0 mm 3 mps 690 mmHg 68%
    11:00 +24°C° 0 mm 3 mps 690 mmHg 62%
    12:00 +24°C° 0 mm 3 mps 690 mmHg 60%
    13:00 +25°C° 0 mm 3 mps 690 mmHg 58%
    14:00 +25°C° 0 mm 3 mps 690 mmHg 56%
    15:00 +26°C° 0 mm 3 mps 690 mmHg 55%
    16:00 +26°C° 0 mm 3 mps 690 mmHg 54%
    17:00 +26°C° 0 mm 4 mps 690 mmHg 53%
    18:00 +24°C° 0.1 mm 3 mps 690 mmHg 62%
    19:00 +21°C° 0.1 mm 2 mps 689 mmHg 70%
    20:00 +19°C° 0.1 mm 2 mps 689 mmHg 78%
    21:00 +18°C° 0 mm 2 mps 689 mmHg 82%
    22:00 +18°C° 0 mm 1 mps 689 mmHg 86%
    23:00 +16°C° 0 mm 1 mps 689 mmHg 90%

    21 July, Saturday

    Time Temperature Precipitation Wind Pressure Humidity
    00:00 +16°C° 0 mm 1 mps 689 mmHg 91%
    01:00 +15°C° 0 mm 1 mps 689 mmHg 92%
    02:00 +15°C° 0 mm 1 mps 689 mmHg 92%
    03:00 +15°C° 0 mm 1 mps 689 mmHg 92%
    04:00 +14°C° 0 mm 1 mps 689 mmHg 91%
    05:00 +14°C° 0 mm 1 mps 689 mmHg 91%
    06:00 +16°C° 0 mm 1 mps 689 mmHg 83%
    07:00 +20°C° 0 mm 1 mps 690 mmHg 74%
    08:00 +22°C° 0 mm 1 mps 690 mmHg 66%
    09:00 +24°C° 0 mm 2 mps 690 mmHg 58%
    10:00 +25°C° 0 mm 2 mps 691 mmHg 51%
    11:00 +27°C° 0 mm 2 mps 691 mmHg 43%
    12:00 +28°C° 0 mm 3 mps 691 mmHg 40%
    13:00 +29°C° 0 mm 3 mps 691 mmHg 37%
    14:00 +30°C° 0 mm 3 mps 690 mmHg 34%
    15:00 +30°C° 0 mm 3 mps 690 mmHg 34%
    16:00 +30°C° 0 mm 3 mps 690 mmHg 34%
    17:00 +29°C° 0 mm 3 mps 690 mmHg 34%
    18:00 +27°C° 0 mm 2 mps 689 mmHg 41%
    19:00 +24°C° 0 mm 2 mps 689 mmHg 48%
    20:00 +21°C° 0 mm 1 mps 689 mmHg 55%
    21:00 +20°C° 0.1 mm 1 mps 689 mmHg 56%
    22:00 +20°C° 0.1 mm 1 mps 689 mmHg 57%
    23:00 +19°C° 0.1 mm 1 mps 689 mmHg 58%

    22 July, Sunday

    Time Temperature Precipitation Wind Pressure Humidity
    00:00 +18°C° 0 mm 1 mps 689 mmHg 58%
    01:00 +18°C° 0 mm 1 mps 688 mmHg 58%
    02:00 +18°C° 0 mm 1 mps 688 mmHg 59%
    03:00 +18°C° 0 mm 1 mps 688 mmHg 60%
    04:00 +18°C° 0 mm 1 mps 688 mmHg 62%
    05:00 +16°C° 0 mm 1 mps 688 mmHg 63%
    06:00 +20°C° 0 mm 1 mps 688 mmHg 58%
    07:00 +22°C° 0 mm 1 mps 689 mmHg 53%
    08:00 +25°C° 0 mm 1 mps 689 mmHg 48%
    09:00 +27°C° 0 mm 1 mps 689 mmHg 42%
    10:00 +29°C° 0 mm 1 mps 689 mmHg 36%
    11:00 +31°C° 0 mm 2 mps 689 mmHg 29%
    12:00 +32°C° 0 mm 2 mps 689 mmHg 28%
    13:00 +34°C° 0 mm 2 mps 688 mmHg 27%
    14:00 +34°C° 0 mm 2 mps 688 mmHg 26%
    15:00 +34°C° 0 mm 2 mps 687 mmHg 28%
    16:00 +32°C° 0 mm 2 mps 687 mmHg 30%
    17:00 +32°C° 0 mm 1 mps 686 mmHg 33%
    18:00 +29°C° 0.4 mm 1 mps 686 mmHg 42%
    19:00 +26°C° 0.4 mm 1 mps 685 mmHg 52%
    20:00 +23°C° 0.4 mm 1 mps 685 mmHg 62%
    21:00 +22°C° 1 mm 1 mps 685 mmHg 68%
    22:00 +21°C° 1 mm 1 mps 685 mmHg 75%
    23:00 +19°C° 1 mm 2 mps 685 mmHg 81%

    23 July, Monday

    Time Temperature Precipitation Wind Pressure Humidity
    00:00 +19°C° 0.4 mm 1 mps 685 mmHg 83%
    01:00 +19°C° 0.4 mm 1 mps 685 mmHg 85%
    02:00 +18°C° 0.4 mm 1 mps 684 mmHg 86%
    03:00 +18°C° 0.1 mm 1 mps 684 mmHg 87%
    04:00 +18°C° 0.1 mm 1 mps 684 mmHg 87%
    05:00 +18°C° 0.1 mm 1 mps 684 mmHg 87%
    06:00 +19°C° 0.1 mm 1 mps 684 mmHg 83%
    07:00 +20°C° 0.1 mm 1 mps 684 mmHg 79%
    08:00 +22°C° 0.1 mm 1 mps 685 mmHg 74%
    09:00 +23°C° 1.1 mm 2 mps 685 mmHg 71%
    10:00 +23°C° 1.1 mm 2 mps 685 mmHg 67%
    11:00 +24°C° 1.1 mm 2 mps 685 mmHg 63%
    12:00 +24°C° 0.5 mm 2 mps 685 mmHg 62%
    13:00 +25°C° 0.5 mm 2 mps 685 mmHg 61%
    14:00 +25°C° 0.5 mm 3 mps 685 mmHg 60%
    15:00 +25°C° 0.2 mm 2 mps 685 mmHg 59%
    16:00 +25°C° 0.2 mm 2 mps 685 mmHg 59%
    17:00 +25°C° 0.2 mm 2 mps 685 mmHg 58%
    18:00 +23°C° 0.5 mm 2 mps 684 mmHg 66%
    19:00 +20°C° 0.5 mm 2 mps 684 mmHg 75%
    20:00 +19°C° 0.5 mm 2 mps 684 mmHg 84%
    21:00 +19°C° 0.7 mm 1 mps 685 mmHg 86%
    22:00 +18°C° 0.7 mm 1 mps 685 mmHg 89%
    23:00 +18°C° 0.7 mm 1 mps 685 mmHg 92%
    Show more